Regional Weather Roundup
Issued by NWS Lake Charles, LA

Home | Current Version | Previous Version | Text Only | Print | Product List | Glossary On
Versions: 1 2 3 4 5 6 7 8 9 10 11 12 13 14 15 16 17 18 19 20 21 22 23 24 25 26 27 28 29 30 31 32 33 34 35 36 37 38 39 40 41 42 43 44 45 46 47 48 49 50
000
ASUS44 KLCH 200610
RWRLCH
REGIONAL WEATHER ROUNDUP
NATIONAL WEATHER SERVICE LAKE CHARLES LA
1200 AM CST MON FEB 20 2017

Note: "fair" indicates few or no clouds below 12,000 feet with no
significant weather and/or obstructions to visibility.


ACROSS SOUTHEAST TEXAS

CITY           SKY/WX    TMP DP  RH WIND       PRES   REMARKS
BEAUMONT       CLOUDY    70  67  90 SE17G29   29.94R
BEAUMONT CITY  CLOUDY    72  68  88 SE12      29.95S
ORANGE         CLOUDY    70  68  95 SE10G21   29.98R
JASPER         CLOUDY    72  68  89 SE6       29.99R
$$

ACROSS CENTRAL LOUISIANA

CITY           SKY/WX    TMP DP  RH WIND       PRES   REMARKS
LEESVILLE      CLOUDY    70  66  88 SE14      29.98R
FULLERTON      CLOUDY    70  66  87 VRB3      29.97R
ALEXANDRIA INT CLOUDY    68  64  87 SE8       29.98R
ESLER FIELD    CLOUDY    66  63  90 SE6       30.01R
DERIDDER       CLOUDY    71  68  90 SE9G18    30.00R
OAKDALE        CLOUDY    71  66  84 SE8       29.99R
OPELOUSAS      CLOUDY    69  64  85 MISG      30.01R
$$

ACROSS SOUTHWEST AND SOUTH CENTRAL LOUISIANA

CITY           SKY/WX    TMP DP  RH WIND       PRES   REMARKS
SULPHUR        CLOUDY    72  68  88 SE14G23   29.98R
LAKE CHARLES   CLOUDY    71  68  90 SE17      29.97R
CHENNAULT INT  CLOUDY    70  68  94 SE16G25   29.98R
CAMERON PHI    FOG       68  68 100 SE18G25   29.95R VSB 1/4
DEQUINCY       CLOUDY    71  67  88 SE8       29.98R
JENNINGS       CLOUDY    70  67  91 SE12      29.99R
LAFAYETTE      CLOUDY    72  67  84 SE7       30.00S
NEW IBERIA     CLOUDY    70  65  84 SE13      30.01S
ABBEVILLE      CLOUDY    70  70 100 SE12      30.00S
PATTERSON      CLOUDY    69  67  93 SE12G20   30.02F
SALT POINT       N/A     68  67  96 SE10      29.99F
$$

SELECTED SITES ACROSS THE REGION

CITY           SKY/WX    TMP DP  RH WIND       PRES   REMARKS
HOUSTON BUSH   CLOUDY    70  68  93 SE13      29.91R FOG
HOUSTON HOBBY  CLOUDY    72  68  87 SE10      29.90S
GALVESTON      CLOUDY    71  69  93 SE16      29.90R
COLLEGE STAT   CLOUDY    71  68  90 SE6       29.90R
CONROE         LGT RAIN  70  68  93 SE10      29.92R FOG
HUNTSVILLE     LGT RAIN  70  68  93 SE5       29.92S FOG
LUFKIN         CLOUDY    69  65  86 SE6       29.94R
SHREVEPORT     MOCLDY    69  62  78 SE9       29.96R
MONROE         PTCLDY    68  51  54 SE5       30.01R
NATCHEZ MS     CLOUDY    63  54  72 SE9       30.02S
BATON ROUGE    CLOUDY    68  65  90 SE9       30.03S FOG
N.O. INTL ARPT PTCLDY    66  65  96 SE12      30.04F
SLIDELL        CLOUDY    64  64 100 S7        30.06F
$$

MARINE REPORTS

STATION/POSITION TIME  SKY/WX   TEMP    WIND        PRES    VSBY
                                AIR SEA DIR/SP/G
                 (UTC)          (F)     (DEG/KT/KT) (MB)    (MI)
BUOY 30 S HIGH I 0550            68 64  130/ 16/ 19 1012.6R
WVE H/P(F/S)=  4/ 6

SEA RIM ST PARK  0500            67     120/ 15/ 18 1013.6F
PORT ARTHUR      0548               65  130/  9/ 13 1014.3R
SABINE PASS N    0548            67 68  120/ 15/ 18 1015.2R
TEXAS POINT      NOT AVBL
CALCASIEU PASS   0548            67 67  140/ 15/ 21   N/A
LK CHARLES BEACH 0548            70 64              1015.1R
MARSH ISLAND     0500            66                   N/A
FRESH WATER LOCK 0548            66 67  100/ 10/ 14 1016.1F
AMERADA PASS     0548            68 57  110/  7/ 10 1016.1F
$$



USA.gov is the U.S. government's official web portal to all federal, state and local government web resources and services.